Newport, AR

10:20 PM CDT on September 25, 2017 (GMT -0500)
Newport

Weather History for KM19 - March, 2014

Change the Weather History Date:

Wednesday, March 26, 2014

  Actual Average (KBVX) Record (KBVX)
Temperature  
Mean Temperature 40 °F -  
Max Temperature 54 °F 62 °F 82 °F (1991)
Min Temperature 26 °F 40 °F 14 °F (1955)
Degree Days  
Heating Degree Days 25    
Moisture  
Dew Point 24 °F    
Average Humidity 50    
Maximum Humidity 85    
Minimum Humidity 29    
Precipitation  
Precipitation 0.00 in - - ()
Sea Level Pressure  
Sea Level Pressure 30.26 in    
Wind  
Wind Speed 8 mph (SE)    
Max Wind Speed 15 mph    
Max Gust Speed 18 mph    
Visibility 10 miles    
Events Rain    
Averages and records for this station are not official NWS values.
T = Trace of Precipitation, MM = Missing Value Source: NWS Daily Summary

Daily Weather History Graph

Daily Weather History Graph

Search for Another Location

Airport or City:

Trip Planner

Search our weather history database for the weather conditions in past years. The results will help you decide how hot, cold, wet, or windy it might be!

Date:

Astronomy

Mar. 26, 2014 Rise Set
Actual Time 6:59 AM CDT 7:21 PM CDT
Civil Twilight 6:34 AM CDT 7:47 PM CDT
Nautical Twilight 6:04 AM CDT 8:17 PM CDT
Astronomical Twilight 5:33 AM CDT 8:47 PM CDT
Moon 3:59 AM CDT 3:08 PM CDT
Length of Visible Light 13h 12m
Length of Day
12h 21m
Waning Crescent, 21% of the Moon is Illuminated
Mar 26
Waning Crescent
Mar 30
New
Apr 7
First Quarter
Apr 15
Full
Apr 22
Last Quarter

Hourly Weather History & Observations

Time (CDT) Temp. Windchill Dew Point Humidity Pressure Visibility Wind Dir Wind Speed Gust Speed Precip Events Conditions
12:56 AM 29.1 °F 23.0 °F 21.0 °F 72% 30.32 in 10.0 mi North 5.8 mph - N/A   Clear
1:56 AM 32.0 °F 25.6 °F 20.1 °F 62% 30.32 in 10.0 mi North 6.9 mph - N/A   Clear
2:56 AM 30.0 °F 24.1 °F 20.1 °F 67% 30.33 in 10.0 mi NNW 5.8 mph - N/A   Clear
3:56 AM 30.0 °F - 19.0 °F 64% 30.34 in 10.0 mi Calm Calm - N/A   Clear
4:56 AM 29.1 °F 24.1 °F 21.0 °F 72% 30.33 in 10.0 mi ENE 4.6 mph - N/A   Clear
5:56 AM 27.1 °F 20.7 °F 21.0 °F 78% 30.35 in 10.0 mi NE 5.8 mph - N/A   Clear
6:56 AM 26.1 °F 20.5 °F 22.1 °F 85% 30.35 in 10.0 mi East 4.6 mph - N/A   Clear
7:56 AM 31.1 °F 24.5 °F 22.1 °F 69% 30.38 in 10.0 mi East 6.9 mph - N/A   Clear
8:56 AM 36.0 °F 28.0 °F 21.0 °F 55% 30.40 in 10.0 mi ESE 11.5 mph - N/A   Clear
9:56 AM 39.9 °F 33.9 °F 22.1 °F 49% 30.40 in 10.0 mi SE 9.2 mph - N/A   Clear
10:56 AM 43.9 °F 39.3 °F 21.0 °F 40% 30.38 in 10.0 mi SE 8.1 mph - N/A   Clear
11:56 AM 46.9 °F - 16.2 °F 29% 30.35 in 10.0 mi SSE 11.5 mph - N/A   Clear
12:56 PM 50.0 °F - 19.0 °F 29% 30.32 in 10.0 mi SSE 12.7 mph 18.4 mph N/A   Clear
1:56 PM 52.0 °F - 21.0 °F 30% 30.29 in 10.0 mi South 12.7 mph - N/A   Clear
2:56 PM 52.9 °F - 22.1 °F 30% 30.24 in 10.0 mi South 11.5 mph - N/A   Clear
3:56 PM 52.0 °F - 22.1 °F 31% 30.21 in 10.0 mi SSE 11.5 mph - N/A   Clear
4:56 PM 54.0 °F - 23.0 °F 30% 30.18 in 10.0 mi South 12.7 mph - N/A   Clear
5:56 PM 54.0 °F - 24.1 °F 31% 30.17 in 10.0 mi South 12.7 mph - N/A   Scattered Clouds
6:56 PM 52.9 °F - 25.2 °F 34% 30.17 in 10.0 mi South 15.0 mph - N/A   Mostly Cloudy
7:56 PM 50.9 °F - 26.1 °F 38% 30.16 in 10.0 mi South 9.2 mph - N/A   Overcast
8:56 PM 50.0 °F - 30.0 °F 46% 30.16 in 10.0 mi SE 11.5 mph - N/A   Overcast
9:56 PM 47.8 °F - 32.0 °F 54% 30.10 in 10.0 mi ESE 13.8 mph - 0.00 in Rain Light Rain
10:12 PM 48.2 °F - 33.8 °F 58% 30.13 in 10.0 mi South 11.5 mph - 0.00 in   Overcast
10:56 PM 47.8 °F - 32.0 °F 54% 30.09 in 10.0 mi SE 11.5 mph - 0.00 in   Mostly Cloudy
11:56 PM 48.9 °F - 31.1 °F 50% 30.07 in 10.0 mi SE 13.8 mph - N/A   Overcast